FW6455 Weather Reports


Display with metric or nautical units.
time (UTC)temp
F
wind
direction
speed
MPH
gust
MPH
rain 1hr
in
rain 24hr
in
rain mn
in
humidity
%
barometer
mb
20260906220541 97 110 3.0 6.0 0.00 0.00 0.00 47 1012.3
20260906220110 98 115 1.0 6.0 0.00 0.00 0.00 46 1012.2
20260906215538 98 44 1.0 6.0 0.00 0.00 0.00 46 1012.3
20260906215041 98 75 1.0 9.0 0.00 0.00 0.00 46 1012.4
20260906214614 97 187 1.0 9.0 0.00 0.00 0.00 47 1012.3
20260906214040 97 62 3.0 9.0 0.00 0.00 0.00 47 1012.4
20260906213539 98 84 1.0 9.0 0.00 0.00 0.00 46 1012.6
20260906213105 97 94 2.0 9.0 0.00 0.00 0.00 46 1012.6
20260906212539 97 83 3.0 9.0 0.00 0.00 0.00 46 1012.5
20260906212039 97 43 3.0 6.0 0.00 0.00 0.00 46 1012.8
20260906211606 97 113 0.0 6.0 0.00 0.00 0.00 46 1012.7
20260906211039 97 156 1.0 7.0 0.00 0.00 0.00 46 1012.7
20260906210539 98 96 3.0 10.0 0.00 0.00 0.00 45 1012.9
20260906210105 98 0 4.0 10.0 0.00 0.00 0.00 46 1012.9
20260906205542 98 83 3.0 7.0 0.00 0.00 0.00 44 1013.0
20260906205039 98 86 1.0 4.0 0.00 0.00 0.00 45 1013.0
20260906204558 98 201 1.0 4.0 0.00 0.00 0.00 46 1013.0
20260906204043 97 130 2.0 9.0 0.00 0.00 0.00 45 1013.2
20260906203540 97 110 2.0 9.0 0.00 0.00 0.00 46 1013.2
20260906203106 97 0 2.0 7.0 0.00 0.00 0.00 45 1013.2
20260906202539 97 131 1.0 7.0 0.00 0.00 0.00 46 1013.3
20260906202039 97 96 2.0 5.0 0.00 0.00 0.00 46 1013.4
20260906201605 97 205 0.0 4.0 0.00 0.00 0.00 47 1013.4
20260906201038 97 101 2.0 7.0 0.00 0.00 0.00 46 1013.5
20260906200537 97 94 1.0 7.0 0.00 0.00 0.00 47 1013.6
20260906200057 97 326 2.0 7.0 0.00 0.00 0.00 46 1013.5
20260906195538 97 97 2.0 7.0 0.00 0.00 0.00 46 1013.5
20260906195039 96 125 3.0 7.0 0.00 0.00 0.00 46 1013.6
20260906194603 96 77 3.0 7.0 0.00 0.00 0.00 45 1013.5
20260906194041 96 150 2.0 8.0 0.00 0.00 0.00 48 1013.7
20260906193540 96 54 4.0 9.0 0.00 0.00 0.00 46 1013.7
20260906193104 97 61 3.0 9.0 0.00 0.00 0.00 47 1013.9
20260906192540 96 68 1.0 6.0 0.00 0.00 0.00 47 1013.8
20260906192039 97 108 2.0 6.0 0.00 0.00 0.00 48 1013.8
20260906191611 96 20 1.0 5.0 0.00 0.00 0.00 48 1013.9
20260906191043 96 124 0.0 7.0 0.00 0.00 0.00 50 1013.9
20260906190544 96 0 3.0 7.0 0.00 0.00 0.00 51 1014.0
20260906190056 95 134 2.0 9.0 0.00 0.00 0.00 52 1014.1
20260906185538 95 56 1.0 9.0 0.00 0.00 0.00 53 1014.2
20260906185039 95 84 2.0 8.0 0.00 0.00 0.00 51 1014.3
20260906184606 96 14 2.0 8.0 0.00 0.00 0.00 52 1014.4
20260906184039 96 71 2.0 4.0 0.00 0.00 0.00 51 1014.4
20260906183541 96 74 1.0 4.0 0.00 0.00 0.00 51 1014.5
20260906183103 96 203 1.0 8.0 0.00 0.00 0.00 52 1014.5
20260906182540 95 103 3.0 8.0 0.00 0.00 0.00 52 1014.6
20260906182043 96 71 3.0 7.0 0.00 0.00 0.00 52 1014.7
20260906181606 96 218 2.0 7.0 0.00 0.00 0.00 52 1014.7
20260906181040 96 0 1.0 3.0 0.00 0.00 0.00 53 1014.8
20260906180541 96 191 1.0 5.0 0.00 0.00 0.00 53 1014.9
20260906180116 95 114 1.0 5.0 0.00 0.00 0.00 55 1015.0
20260906175542 95 21 2.0 5.0 0.00 0.00 0.00 54 1015.0
20260906175042 95 94 2.0 5.0 0.00 0.00 0.00 52 1015.2
20260906174601 95 110 0.0 5.0 0.00 0.00 0.00 55 1015.1
20260906174039 94 179 1.0 6.0 0.00 0.00 0.00 56 1015.2
20260906173544 94 84 1.0 6.0 0.00 0.00 0.00 56 1015.2
20260906173105 93 194 1.0 5.0 0.00 0.00 0.00 57 1015.3
20260906172543 93 182 1.0 5.0 0.00 0.00 0.00 58 1015.4
20260906172042 93 88 2.0 5.0 0.00 0.00 0.00 57 1015.6
20260906171603 92 86 0.0 7.0 0.00 0.00 0.00 58 1015.7
20260906171043 92 195 2.0 7.0 0.00 0.00 0.00 59 1015.7
20260906170540 92 89 3.0 7.0 0.00 0.00 0.00 59 1015.9
20260906170057 93 61 3.0 6.0 0.00 0.00 0.00 58 1015.8
20260906165540 93 72 1.0 6.0 0.00 0.00 0.00 58 1015.8
20260906165044 93 69 1.0 4.0 0.00 0.00 0.00 59 1016.1
20260906164602 92 15 1.0 5.0 0.00 0.00 0.00 59 1015.9
20260906164041 92 184 2.0 5.0 0.00 0.00 0.00 59 1016.0
20260906163540 91 198 1.0 6.0 0.00 0.00 0.00 60 1016.1
20260906163122 91 60 2.0 6.0 0.00 0.00 0.00 61 1016.1
20260906162540 91 113 2.0 5.0 0.00 0.00 0.00 61 1016.2
20260906162041 91 133 1.0 3.0 0.00 0.00 0.00 63 1016.0
20260906161558 90 0 0.0 5.0 0.00 0.00 0.00 65 1016.1
20260906161037 90 160 1.0 5.0 0.00 0.00 0.00 65 1016.2
20260906160540 90 81 1.0 4.0 0.00 0.00 0.00 66 1016.2
20260906160108 89 40 0.0 5.0 0.00 0.00 0.00 68 1016.1
20260906155541 89 73 2.0 5.0 0.00 0.00 0.00 68 1016.2
20260906155040 89 67 1.0 4.0 0.00 0.00 0.00 68 1016.3
20260906154602 89 66 1.0 5.0 0.00 0.00 0.00 69 1016.2
20260906154040 88 165 0.0 5.0 0.00 0.00 0.00 70 1016.1
20260906153540 88 112 1.0 3.0 0.00 0.00 0.00 70 1016.0
20260906153113 88 116 1.0 3.0 0.00 0.00 0.00 71 1016.1
20260906152538 87 92 0.0 3.0 0.00 0.00 0.00 72 1016.0
20260906152036 87 0 0.0 4.0 0.00 0.00 0.00 73 1016.0
20260906151557 86 58 1.0 4.0 0.00 0.00 0.00 74 1016.1
20260906151041 85 156 0.0 3.0 0.00 0.00 0.00 75 1015.9
20260906150539 85 0 1.0 3.0 0.00 0.00 0.00 75 1015.9
20260906150109 85 117 0.0 3.0 0.00 0.00 0.00 76 1015.9
20260906145537 84 0 1.0 3.0 0.00 0.00 0.00 76 1015.9
20260906145037 84 206 0.0 3.0 0.00 0.00 0.00 76 1015.8
20260906144559 84 69 1.0 3.0 0.00 0.00 0.00 76 1015.8
20260906144043 84 109 0.0 3.0 0.00 0.00 0.00 78 1015.8
20260906143539 83 0 0.0 3.0 0.00 0.00 0.00 79 1015.7
20260906143058 83 206 0.0 1.0 0.00 0.00 0.00 79 1015.9
20260906142538 83 0 0.0 1.0 0.00 0.00 0.00 78 1015.8
20260906142040 83 131 0.0 3.0 0.00 0.00 0.00 78 1015.8
20260906141604 82 0 0.0 3.0 0.00 0.00 0.00 80 1015.8
20260906141036 82 63 1.0 3.0 0.00 0.00 0.00 80 1015.8
20260906140537 82 0 0.0 1.0 0.00 0.00 0.00 80 1015.8
20260906140107 83 153 0.0 1.0 0.00 0.00 0.00 79 1015.8
20260906135536 82 135 0.0 1.0 0.00 0.00 0.00 79 1015.9
20260906135036 82 0 0.0 2.0 0.00 0.00 0.00 80 1015.9
20260906134557 82 0 0.0 2.0 0.00 0.00 0.00 80 1015.8
20260906134037 82 0 0.0 2.0 0.00 0.00 0.00 80 1015.7
20260906133537 82 179 0.0 1.0 0.00 0.00 0.00 80 1015.9
20260906133132 82 0 0.0 2.0 0.00 0.00 0.00 81 1015.8
20260906132540 81 0 0.0 2.0 0.00 0.00 0.00 82 1015.8
20260906132036 81 76 0.0 1.0 0.00 0.00 0.00 83 1015.6
20260906131614 81 0 0.0 1.0 0.00 0.00 0.00 83 1015.6
20260906131037 80 0 0.0 1.0 0.00 0.00 0.00 84 1015.5
20260906130538 80 76 0.0 1.0 0.00 0.00 0.00 85 1015.5
20260906130112 79 0 0.0 1.0 0.00 0.00 0.00 87 1015.5
20260906125538 79 106 0.0 1.0 0.00 0.00 0.00 88 1015.3
20260906125039 78 0 0.0 0.0 0.00 0.00 0.00 90 1015.3
20260906124607 77 0 0.0 0.0 0.00 0.00 0.00 92 1015.2
20260906124037 76 0 0.0 0.0 0.00 0.00 0.00 92 1015.2
20260906123536 76 0 0.0 0.0 0.00 0.00 0.00 92 1015.2
20260906123104 75 0 0.0 0.0 0.00 0.00 0.00 92 1015.2
20260906122541 75 0 0.0 0.0 0.00 0.00 0.00 92 1015.1
20260906122042 75 0 0.0 0.0 0.00 0.00 0.00 91 1015.2
20260906121600 75 0 0.0 0.0 0.00 0.00 0.00 91 1015.1
20260906121040 75 0 0.0 0.0 0.00 0.00 0.00 91 1015.1
20260906120540 75 0 0.0 0.0 0.00 0.00 0.00 91 1015.1
20260906120105 75 0 0.0 0.0 0.00 0.00 0.00 91 1015.1
20260906115541 75 0 0.0 0.0 0.00 0.00 0.00 91 1015.1
20260906115040 76 0 0.0 0.0 0.00 0.00 0.00 91 1014.9
20260906114604 76 0 0.0 0.0 0.00 0.00 0.00 91 1014.9
20260906114040 76 0 0.0 0.0 0.00 0.00 0.00 91 1014.8
20260906113540 76 0 0.0 0.0 0.00 0.00 0.00 91 1014.8
20260906113105 76 0 0.0 0.0 0.00 0.00 0.00 91 1014.8
20260906112540 76 0 0.0 0.0 0.00 0.00 0.00 91 1014.9
20260906112042 76 0 0.0 0.0 0.00 0.00 0.00 90 1014.7
20260906111603 76 0 0.0 0.0 0.00 0.00 0.00 90 1014.6
20260906111040 76 0 0.0 0.0 0.00 0.00 0.00 90 1014.7
20260906110539 76 0 0.0 0.0 0.00 0.00 0.00 90 1014.6
20260906110059 76 0 0.0 0.0 0.00 0.00 0.00 90 1014.5
20260906105539 76 0 0.0 0.0 0.00 0.00 0.00 90 1014.4
20260906105040 76 0 0.0 0.0 0.00 0.00 0.00 90 1014.5
20260906104557 76 0 0.0 0.0 0.00 0.00 0.00 89 1014.5
20260906104040 77 0 0.0 0.0 0.00 0.00 0.00 89 1014.4
20260906103539 77 0 0.0 0.0 0.00 0.00 0.00 89 1014.4
20260906103103 77 0 0.0 0.0 0.00 0.00 0.00 89 1014.4
20260906102541 77 0 0.0 0.0 0.00 0.00 0.00 88 1014.2
20260906102041 77 0 0.0 0.0 0.00 0.00 0.00 88 1014.3
20260906101600 77 0 0.0 0.0 0.00 0.00 0.00 88 1014.2
20260906101040 77 0 0.0 0.0 0.00 0.00 0.00 88 1014.1
20260906100539 77 0 0.0 0.0 0.00 0.00 0.00 88 1014.1
20260906100110 77 0 0.0 0.0 0.00 0.00 0.00 89 1014.1
20260906095545 77 0 0.0 0.0 0.00 0.00 0.00 89 1014.0
20260906095040 76 0 0.0 0.0 0.00 0.00 0.00 89 1014.0
20260906094619 76 0 0.0 0.0 0.00 0.00 0.00 89 1014.1
20260906094040 76 0 0.0 0.0 0.00 0.00 0.00 88 1014.1
20260906093540 76 0 0.0 0.0 0.00 0.00 0.00 88 1013.9
20260906093104 77 0 0.0 0.0 0.00 0.00 0.00 88 1013.8
20260906092540 77 0 0.0 0.0 0.00 0.00 0.00 88 1013.7
20260906092039 77 0 0.0 0.0 0.00 0.00 0.00 88 1013.7
20260906091607 77 0 0.0 0.0 0.00 0.00 0.00 88 1013.7
20260906091044 77 0 0.0 0.0 0.00 0.00 0.00 88 1013.7
20260906090540 77 0 0.0 0.0 0.00 0.00 0.00 88 1013.7
20260906090120 77 0 0.0 0.0 0.00 0.00 0.00 88 1013.6
20260906085539 77 0 0.0 0.0 0.00 0.00 0.00 87 1013.7
20260906085040 77 0 0.0 0.0 0.00 0.00 0.00 87 1013.5
20260906084603 77 0 0.0 0.0 0.00 0.00 0.00 87 1013.4
20260906084040 77 0 0.0 0.0 0.00 0.00 0.00 87 1013.5
20260906083539 77 0 0.0 0.0 0.00 0.00 0.00 87 1013.5
20260906083102 78 0 0.0 0.0 0.00 0.00 0.00 87 1013.6
20260906082537 78 0 0.0 0.0 0.00 0.00 0.00 87 1013.6
20260906082041 78 0 0.0 0.0 0.00 0.00 0.00 86 1013.6
20260906081600 78 0 0.0 0.0 0.00 0.00 0.00 86 1013.6
20260906081040 78 0 0.0 0.0 0.00 0.00 0.00 86 1013.8
20260906080540 78 0 0.0 0.0 0.00 0.00 0.00 86 1013.8
20260906080100 78 0 0.0 0.0 0.00 0.00 0.00 86 1013.8
20260906075540 78 0 0.0 0.0 0.00 0.00 0.00 86 1013.8
20260906075040 78 0 0.0 0.0 0.00 0.00 0.00 86 1013.8
20260906074610 78 0 0.0 0.0 0.00 0.00 0.00 86 1013.8
20260906074040 78 0 0.0 0.0 0.00 0.00 0.00 86 1013.7
20260906073540 78 0 0.0 0.0 0.00 0.00 0.00 86 1013.8
20260906073104 78 0 0.0 0.0 0.00 0.00 0.00 86 1013.9
20260906072539 78 0 0.0 0.0 0.00 0.00 0.00 86 1013.8
20260906072038 78 0 0.0 0.0 0.00 0.00 0.00 86 1014.0
20260906071601 78 0 0.0 0.0 0.00 0.00 0.00 86 1014.0
20260906071039 78 0 0.0 0.0 0.00 0.00 0.00 86 1014.0
20260906070540 78 0 0.0 0.0 0.00 0.00 0.00 86 1014.0
20260906070058 78 0 0.0 0.0 0.00 0.00 0.00 85 1013.9
20260906065539 79 0 0.0 0.0 0.00 0.00 0.00 85 1013.7
20260906065039 79 0 0.0 0.0 0.00 0.00 0.00 85 1013.9
20260906064609 79 0 0.0 0.0 0.00 0.00 0.00 85 1013.9
20260906064040 79 0 0.0 0.0 0.00 0.00 0.00 84 1013.8
20260906063539 79 0 0.0 0.0 0.00 0.00 0.00 84 1013.9
20260906063102 79 0 0.0 0.0 0.00 0.00 0.00 84 1014.0
20260906062537 79 0 0.0 0.0 0.00 0.00 0.00 84 1014.3
20260906062042 79 0 0.0 0.0 0.00 0.00 0.00 84 1014.3
20260906061602 80 0 0.0 0.0 0.00 0.00 0.00 83 1014.4
20260906061044 80 0 0.0 0.0 0.00 0.00 0.00 83 1014.5
20260906060541 80 0 0.0 0.0 0.00 0.00 0.00 83 1014.5
20260906060105 80 0 0.0 0.0 0.00 0.00 0.00 82 1014.5
20260906055543 80 0 0.0 0.0 0.00 0.00 0.00 82 1014.4
20260906055041 80 0 0.0 0.0 0.00 0.00 0.00 82 1014.4
20260906054605 80 0 0.0 0.0 0.00 0.00 0.00 82 1014.3
20260906054040 80 0 0.0 0.0 0.00 0.00 0.00 81 1014.2
20260906053540 80 0 0.0 0.0 0.00 0.00 0.00 81 1014.1
20260906053101 81 0 0.0 0.0 0.00 0.00 0.00 81 1014.2
20260906052544 81 0 0.0 0.0 0.00 0.00 0.00 80 1014.1
20260906052040 81 0 0.0 0.0 0.00 0.00 0.00 80 1014.2
20260906051601 81 0 0.0 0.0 0.00 0.00 0.00 80 1014.2
20260906051040 81 0 0.0 0.0 0.00 0.00 0.00 80 1014.2
20260906050540 81 0 0.0 0.0 0.00 0.00 0.00 80 1014.2
20260906050111 81 0 0.0 0.0 0.00 0.00 0.00 79 1014.1
20260906045540 81 0 0.0 0.0 0.00 0.00 0.00 79 1014.3
20260906045040 81 0 0.0 0.0 0.00 0.00 0.00 79 1014.3
20260906044603 81 0 0.0 0.0 0.00 0.00 0.00 79 1014.2
20260906044041 81 0 0.0 0.0 0.00 0.00 0.00 78 1014.0
20260906043539 82 0 0.0 0.0 0.00 0.00 0.00 78 1014.1
20260906043101 82 0 0.0 0.0 0.00 0.00 0.00 78 1014.0
20260906042540 82 0 0.0 0.0 0.00 0.00 0.00 77 1014.2
20260906042039 82 0 0.0 0.0 0.00 0.00 0.00 77 1014.1
20260906041559 82 0 0.0 1.0 0.00 0.00 0.00 77 1014.1
20260906041043 82 0 0.0 1.0 0.00 0.00 0.00 76 1014.3
20260906040540 82 0 0.0 1.0 0.00 0.00 0.00 76 1014.3
20260906040106 82 0 0.0 1.0 0.00 0.00 0.00 76 1014.2
20260906035541 83 0 0.0 1.0 0.00 0.00 0.00 76 1014.2
20260906035040 83 0 0.0 0.0 0.00 0.00 0.00 75 1014.3
20260906034602 83 0 0.0 0.0 0.00 0.00 0.00 75 1014.3
20260906034040 83 0 0.0 0.0 0.00 0.00 0.00 75 1014.2
20260906033543 83 0 0.0 0.0 0.00 0.00 0.00 74 1014.2
20260906033104 83 0 0.0 0.0 0.00 0.00 0.00 74 1014.2
20260906032539 83 0 0.0 0.0 0.00 0.00 0.00 74 1014.2
20260906032040 83 0 0.0 0.0 0.00 0.00 0.00 73 1014.2
20260906031559 84 0 0.0 0.0 0.00 0.00 0.00 73 1014.2
20260906031040 84 0 0.0 0.0 0.00 0.00 0.00 73 1014.1
20260906030540 84 0 0.0 0.0 0.00 0.00 0.00 72 1014.1
20260906030105 84 0 0.0 0.0 0.00 0.00 0.00 72 1014.1
20260906025540 84 0 0.0 0.0 0.00 0.00 0.00 72 1014.2
20260906025040 84 0 0.0 0.0 0.00 0.00 0.00 72 1014.0
20260906024605 85 0 0.0 0.0 0.00 0.00 0.00 71 1014.1
20260906024039 85 0 0.0 0.0 0.00 0.00 0.00 71 1014.1
20260906023540 85 0 0.0 0.0 0.00 0.00 0.00 71 1014.0
20260906023059 85 0 0.0 1.0 0.00 0.00 0.00 70 1013.9
20260906022542 85 0 0.0 1.0 0.00 0.00 0.00 70 1013.8
20260906022040 85 200 0.0 1.0 0.00 0.00 0.00 70 1013.8
20260906021600 85 0 0.0 1.0 0.00 0.00 0.00 69 1013.8
20260906021040 86 0 0.0 2.0 0.00 0.00 0.00 69 1013.7
20260906020540 86 0 0.0 2.0 0.00 0.00 0.00 68 1013.8
20260906020110 86 0 0.0 1.0 0.00 0.00 0.00 67 1013.6
20260906015539 86 0 0.0 1.0 0.00 0.00 0.00 67 1013.5
20260906015040 86 0 0.0 3.0 0.00 0.00 0.00 66 1013.6
20260906014611 87 0 0.0 3.0 0.00 0.00 0.00 66 1013.5
20260906014041 87 0 0.0 0.0 0.00 0.00 0.00 65 1013.3
20260906013539 87 0 0.0 2.0 0.00 0.00 0.00 64 1013.3
20260906013100 87 0 0.0 2.0 0.00 0.00 0.00 64 1013.1
20260906012539 87 0 0.0 2.0 0.00 0.00 0.00 63 1013.0
20260906012039 87 181 0.0 2.0 0.00 0.00 0.00 63 1012.9
20260906011615 88 119 0.0 2.0 0.00 0.00 0.00 63 1012.8
20260906011039 88 164 0.0 2.0 0.00 0.00 0.00 63 1012.8
20260906010539 88 0 0.0 1.0 0.00 0.00 0.00 63 1012.9
20260906005539 89 173 0.0 3.0 0.00 0.00 0.00 62 1013.0
20260906005039 89 0 0.0 3.0 0.00 0.00 0.00 62 1012.9
20260906004557 89 203 0.0 4.0 0.00 0.00 0.00 62 1013.0
20260906004039 89 206 0.0 5.0 0.00 0.00 0.00 62 1012.9
20260906003542 89 132 1.0 6.0 0.00 0.00 0.00 61 1012.9
20260906003103 89 197 0.0 6.0 0.00 0.00 0.00 61 1013.1
20260906002539 90 120 2.0 6.0 0.00 0.00 0.00 61 1012.9
20260906002044 90 147 2.0 7.0 0.00 0.00 0.00 60 1012.9
20260906001602 90 108 2.0 7.0 0.00 0.00 0.00 59 1012.9
20260906001041 91 105 1.0 6.0 0.00 0.00 0.00 59 1012.7
20260906000539 91 117 2.0 9.0 0.00 0.00 0.00 58 1012.6
20260906000100 92 56 2.0 9.0 0.00 0.00 0.00 57 1012.5
20260905235543 93 145 2.0 9.0 0.00 0.00 0.00 56 1012.4
20260905235039 94 190 1.0 9.0 0.00 0.00 0.00 55 1012.5
20260905234606 95 106 2.0 9.0 0.00 0.00 0.00 54 1012.3
20260905234040 96 45 0.0 4.0 0.00 0.00 0.00 47 1012.1
20260905233540 97 105 0.0 5.0 0.00 0.00 0.00 47 1011.9
20260905233129 97 78 1.0 8.0 0.00 0.00 0.00 46 1011.8
20260905232539 97 77 1.0 8.0 0.00 0.00 0.00 45 1011.8
20260905232040 97 66 2.0 8.0 0.00 0.00 0.00 45 1011.9
20260905231602 97 72 0.0 6.0 0.00 0.00 0.00 45 1011.9
20260905231041 97 93 2.0 4.0 0.00 0.00 0.00 45 1011.9
20260905230539 97 11 0.0 2.0 0.00 0.00 0.00 45 1011.9
20260905230100 97 129 0.0 2.0 0.00 0.00 0.00 45 1011.9
20260905225537 97 0 0.0 3.0 0.00 0.00 0.00 45 1011.9
20260905225039 98 123 0.0 3.0 0.00 0.00 0.00 44 1012.0
20260905224623 98 0 1.0 4.0 0.00 0.00 0.00 44 1011.9
20260905224041 98 116 1.0 4.0 0.00 0.00 0.00 44 1012.0
20260905223539 98 86 1.0 3.0 0.00 0.00 0.00 44 1012.0
20260905223107 98 174 0.0 3.0 0.00 0.00 0.00 44 1012.0
20260905222540 98 125 1.0 7.0 0.00 0.00 0.00 45 1011.9
20260905222041 97 57 0.0 7.0 0.00 0.00 0.00 45 1011.8
20260905221559 97 86 3.0 7.0 0.00 0.00 0.00 45 1011.9
20260905221044 98 129 3.0 6.0 0.00 0.00 0.00 45 1011.8